EHI
0 0 0 0 0 0 1 1 0 0 0 0 0 0 0 0 0 0 0 0 0 0 0 0 0 0 0 0 0 0 0 0 0 0 0 0 0 0 0 0 0 0 0
0 0 0 0 0 0 1 1 0 0 0 0 0 0 0 0 0 0 0 0 0 0 0 0 0 0 0 0 0 0 0 0 0 0 0 0 0 0 0 0 0 0 0
0 0 0 0 0 1 1 1 1 1 0 0 0 0 0 0 0 0 0 0 0 0 0 0 0 0 0 0 0 0 0 0 0 0 0 0 0 0 0 0 0 0 0
0 0 0 0 1 1 1 2 3 3 1 0 0 0 0 0 0 0 0 0 0 0 0 0 0 0 0 0 0 0 0 0 0 0 0 0 0 0 0 0 0 0 0
0 0 0 1 1 2 2 2 3 2 1 0 0 0 0 0 0 0 0 0 0 0 0 0 0 0 0 0 0 0 0 0 0 0 0 0 0 0 0 0 0 0 0
0 0 0 0 0 1 2 2 2 1 0 0 0 0 0 0 0 0 0 0 0 0 0 0 0 0 0 0 0 0 0 0 0 0 0 0 0 0 0 0 0 0 0
0 0 0 0 0 0 1 1 1 1 0 1 2 1 0 0 0 0 0 0 0 0 0 0 0 0 0 0 0 0 0 0 0 0 0 0 0 0 0 0 0 0 0
0 0 0 0 0 0 0 0 1 1 1 1 2 2 1 0 0 0 0 0 0 0 0 0 0 0 0 0 0 0 0 0 0 0 0 0 0 0 0 0 0 0 0
0 0 0 0 0 0 0 0 1 1 1 1 2 2 1 0 0 0 0 0 1 1 1 0 0 0 0 0 0 0 0 0 0 0 0 0 0 0 0 0 0 0 0
0 0 0 0 0 0 0 0 0 1 1 1 2 2 1 1 0 0 0 0 1 2 1 1 1 0 0 0 0 0 0 0 0 0 0 0 0 0 0 0 0 0 0
0 0 0 0 0 0 0 0 0 0 1 2 2 2 2 1 1 1 1 0 1 1 2 2 2 1 0 0 0 0 0 0 0 0 0 0 0 0 0 0 0 0 0
0 0 0 0 0 0 0 0 0 0 0 1 1 2 2 2 1 1 2 1 0 1 2 2 3 2 1 0 0 0 0 0 0 0 0 0 0 0 0 0 0 0 0
0 0 0 0 0 0 0 0 0 0 0 0 0 1 2 1 0 1 2 2 1 0 1 1 2 3 2 1 0 0 0 0 0 0 0 0 0 0 0 0 0 0 0
0 0 0 0 0 0 0 0 0 0 0 0 0 0 1 1 0 0 1 2 2 1 0 0 0 2 3 3 1 0 0 0 0 0 0 0 0 0 0 0 0 0 0
0 0 0 0 0 0 0 0 0 0 0 0 0 0 0 0 0 0 1 1 1 1 0 0 0 1 3 4 1 0 0 0 0 0 0 0 0 0 0 0 0 0 0
0 0 0 0 0 0 0 0 0 0 0 0 0 0 0 0 0 0 0 0 0 0 0 0 0 0 1 2 1 0 0 0 0 0 0 0 0 0 0 0 0 0 0
0 0 0 0 0 0 0 0 0 0 0 0 0 0 0 0 0 0 0 0 0 0 0 0 0 0 0 0 0 0 0 0 0 0 0 0 0 0 0 0 0 0 0
0 0 0 0 0 0 0 0 0 0 0 0 0 0 0 0 0 0 0 1 1 1 1 0 0 0 0 0 0 0 0 0 0 0 0 0 0 0 0 0 0 0 0
0 0 0 0 0 0 0 0 0 0 0 0 0 0 0 0 0 0 0 1 2 2 2 1 0 0 0 0 0 0 0 0 0 0 0 0 0 0 0 0 0 0 0
0 0 0 0 0 0 0 0 0 0 0 0 0 0 0 0 0 0 0 0 1 3 2 1 0 0 0 0 0 0 0 1 0 0 0 0 0 0 0 0 0 0 0
0 0 0 0 0 0 0 0 0 0 0 0 0 0 0 0 0 0 0 0 1 2 2 1 0 0 0 0 0 0 0 0 0 0 1 0 0 0 0 0 0 0 0
0 0 0 0 0 0 0 0 0 0 0 0 0 0 0 0 0 0 0 0 0 1 1 0 0 0 0 0 0 0 0 0 0 0 0 0 0 0 0 0 0 0 0
0 0 0 0 0 0 0 0 0 0 0 0 0 0 0 0 0 0 0 0 0 0 0 0 0 0 0 0 0 0 0 0 0 0 0 0 0 0 0 0 0 0 0
0 0 0 0 0 0 0 0 0 0 0 0 0 0 0 0 0 0 0 0 0 0 0 0 0 0 0 0 0 0 0 0 0 0 0 0 0 0 0 0 0 0 0
0 0 0 0 0 0 0 0 0 0 0 0 0 0 0 0 0 0 0 0 0 0 0 0 0 0 0 0 0 0 0 0 0 0 0 0 0 0 0 0 0 0 0
0 0 0 0 0 0 0 0 0 0 0 0 0 0 0 0 0 0 0 0 0 0 0 0 0 0 0 0 0 0 0 0 0 0 0 0 0 0 0 0 0 0 0
Wind_Speed
4 4 4 4 5 4 5 6 6 7 7 8 7 8 8 8 7 6 4 8 7 7 8 8 8 8 7 7 7 7 7 8 8 9 9 10 10 10 10 9 9 9 8
5 4 4 4 4 4 5 5 6 6 5 5 7 8 8 8 8 8 6 8 9 8 8 9 9 9 8 8 8 8 8 8 8 9 9 10 10 10 10 9 9 8 7
6 5 5 5 5 4 5 4 5 5 5 6 7 8 7 8 8 9 8 6 8 11 9 9 9 10 9 9 9 9 9 8 8 9 9 10 10 10 10 9 8 7 7
6 6 6 5 5 4 4 4 4 5 5 6 6 6 6 6 8 8 8 8 7 7 11 11 9 9 10 10 10 9 10 9 9 9 9 9 10 10 10 9 8 7 7
7 6 5 5 6 5 5 5 5 5 5 6 6 5 6 6 7 8 10 10 9 7 7 11 11 9 10 10 11 10 10 11 10 10 10 10 10 10 9 9 8 8 7
7 7 5 6 6 5 5 5 6 6 5 5 6 5 5 5 6 7 8 8 8 10 9 9 10 10 11 9 10 11 11 12 12 11 11 11 11 10 10 9 9 8 7
6 6 6 6 5 5 6 6 6 7 6 5 4 4 5 6 6 6 7 8 9 8 9 9 9 7 9 12 10 10 12 13 13 13 12 12 11 11 10 10 9 8 8
6 6 6 5 5 5 7 7 7 5 5 6 5 4 4 5 6 6 6 8 10 9 10 11 11 9 7 8 10 12 10 11 13 13 13 12 12 11 11 10 10 9 8
6 6 6 6 6 6 6 7 7 8 6 6 6 5 5 6 4 5 8 8 9 7 9 10 12 12 11 8 8 13 12 10 12 14 13 13 13 12 12 11 10 10 9
6 6 6 6 6 5 6 7 7 7 7 6 6 7 7 4 4 4 5 7 8 9 9 9 10 11 11 9 7 9 14 12 11 13 14 14 14 13 12 12 11 10 9
6 6 6 6 5 5 6 7 7 8 7 8 6 6 7 6 7 5 5 5 6 7 8 9 8 9 10 10 9 11 14 13 12 12 13 14 14 14 13 13 12 11 10
5 7 7 6 5 5 6 6 7 8 8 9 8 7 7 7 8 8 7 5 5 6 7 6 7 7 8 9 11 11 14 13 13 12 11 12 14 14 14 14 13 12 11
6 8 8 7 6 6 6 6 7 8 8 9 9 8 8 9 7 7 7 6 5 4 5 6 7 6 7 8 8 13 13 14 13 13 12 11 12 13 14 14 14 13 13
6 8 8 7 7 7 6 6 6 7 7 8 10 10 8 8 8 8 8 7 6 5 6 7 5 7 7 8 8 13 12 15 14 14 13 12 12 12 12 13 13 13 13
7 8 8 8 7 7 7 7 5 6 6 7 8 10 9 8 8 9 9 8 7 7 8 8 6 7 7 7 7 10 11 15 16 15 14 14 13 12 12 11 11 10 10
7 8 9 8 7 7 7 6 6 6 6 7 6 8 9 8 8 8 9 8 8 8 6 5 6 5 6 7 9 9 9 12 16 15 15 14 14 13 13 12 11 10 10
8 8 8 9 8 8 7 6 7 7 7 7 6 7 8 9 8 8 8 8 9 8 8 5 5 5 7 8 8 8 8 8 10 15 15 15 15 14 13 13 12 12 11
8 8 8 8 8 8 7 7 7 7 7 7 6 7 7 6 8 7 7 9 8 9 8 8 6 6 7 8 8 9 8 8 7 13 16 16 15 14 14 13 12 12 12
8 8 8 8 8 8 8 8 7 7 7 7 6 6 7 6 6 5 7 8 7 7 7 7 6 5 5 6 7 8 8 6 7 10 14 14 15 15 14 13 12 12 12
7 8 8 8 8 8 8 9 8 8 7 6 6 6 7 6 6 6 6 7 7 7 7 7 6 5 5 6 7 7 7 6 6 7 8 9 12 14 14 14 13 13 13
7 7 8 8 8 8 8 11 10 8 8 7 6 5 5 5 5 5 5 5 6 6 6 6 6 6 6 6 7 6 6 6 6 6 7 7 8 8 9 12 13 14 14
7 8 8 8 8 7 11 13 12 9 8 7 6 5 3 4 3 4 5 5 6 7 7 7 6 7 8 8 7 7 7 7 5 6 7 6 7 7 7 7 12 15 16
7 7 8 8 8 8 11 12 12 10 8 6 6 5 3 2 3 3 3 5 6 7 8 7 8 9 9 9 10 10 9 8 5 7 7 5 5 6 5 7 16 16 17
6 7 7 8 8 7 10 12 13 9 6 6 5 5 4 3 3 4 2 2 3 4 5 7 7 8 8 8 9 9 8 7 6 5 5 5 5 5 5 7 14 15 15
7 7 6 7 8 7 8 11 13 7 5 6 5 5 5 4 4 5 3 2 2 1 1 2 3 4 5 8 8 7 9 9 6 4 3 4 5 5 4 4 9 13 14
6 7 6 6 7 7 7 10 12 6 6 5 5 4 4 5 6 6 4 2 2 2 2 3 4 5 6 8 11 9 9 9 7 4 4 5 6 5 4 3 4 7 9
Wind_Direction
251 249 248 243 248 248 241 236 236 233 236 241 235 234 231 220 226 223 174 167 203 217 212 205 202 201 200 197 184 175 170 163 160 157 152 149 146 145 142 140 139 137 134
258 255 254 248 244 241 240 240 241 235 234 238 241 238 240 230 227 223 221 182 193 209 213 208 204 203 204 203 193 184 178 172 168 165 160 157 154 152 150 148 148 145 142
269 263 258 246 237 230 234 236 235 231 228 229 233 239 238 238 232 224 220 217 195 193 203 205 206 205 206 208 201 191 184 180 176 172 168 166 162 160 158 157 157 155 152
276 273 265 257 247 234 228 226 223 221 221 225 229 227 229 224 234 235 227 215 216 199 189 195 199 205 208 211 206 199 191 187 183 179 175 171 170 168 167 167 167 164 163
286 274 269 267 256 243 231 229 219 220 223 222 228 228 233 229 230 230 231 225 212 209 203 174 191 202 209 214 211 205 199 193 189 185 182 177 176 175 176 176 175 176 176
294 286 271 261 257 250 241 230 226 220 226 222 228 225 228 229 234 232 242 240 228 211 213 189 188 196 204 213 215 210 207 200 194 191 187 184 183 183 184 184 185 185 185
304 289 281 277 265 254 249 242 231 225 223 217 218 221 223 230 234 236 235 239 234 224 217 208 205 196 191 203 213 215 212 207 201 197 194 191 189 189 188 188 190 191 191
319 304 291 279 264 260 251 245 234 236 228 210 213 215 217 215 223 229 233 235 237 220 221 217 209 202 208 190 192 202 210 209 207 202 199 195 193 192 192 192 193 195 195
326 315 305 290 277 264 256 248 240 232 233 225 222 220 222 221 194 200 223 228 233 231 222 222 218 204 205 207 186 188 198 203 207 205 202 199 196 195 196 195 196 196 193
339 332 316 300 286 273 265 256 242 240 237 233 226 230 240 248 212 196 203 223 227 226 229 225 224 216 205 205 200 183 184 196 204 210 207 203 199 197 196 195 194 191 188
345 344 333 320 304 287 275 267 259 243 237 236 231 225 227 233 237 231 209 197 218 223 225 232 227 221 213 209 204 190 178 191 200 208 208 204 200 197 195 193 191 187 186
345 351 340 329 315 304 294 281 266 254 245 240 238 232 226 220 218 224 227 205 204 210 216 226 236 227 217 214 209 172 177 190 197 201 203 202 200 198 194 191 191 188 185
344 346 339 329 322 311 298 289 275 264 253 246 241 237 236 236 234 228 227 220 209 195 199 215 225 228 224 219 204 169 183 191 197 198 197 195 194 194 193 192 191 189 186
338 337 334 329 324 316 304 292 283 272 260 251 247 242 239 239 236 231 229 222 215 204 206 214 208 212 218 220 204 180 191 192 197 196 193 190 187 187 189 191 191 189 184
336 338 334 331 328 319 309 303 285 280 273 259 250 243 238 237 235 233 231 226 222 219 214 208 199 207 209 215 191 198 206 189 194 194 191 188 184 183 181 181 181 177 177
339 337 336 334 332 326 319 314 302 295 281 268 258 252 245 239 234 229 228 224 223 229 230 202 196 193 195 208 200 206 212 180 188 191 187 182 178 177 176 175 171 170 168
338 343 339 335 335 332 328 321 311 306 292 278 267 264 259 248 237 227 224 224 222 221 228 216 187 187 189 200 193 200 200 193 190 187 185 180 176 174 172 171 170 168 167
339 340 341 337 338 335 333 326 316 312 304 296 283 275 272 263 246 233 225 224 222 220 220 216 195 188 195 194 190 191 192 194 190 181 181 179 175 170 168 168 168 167 167
334 337 340 340 337 335 331 325 321 317 310 300 292 283 277 265 257 242 233 228 220 218 218 217 200 186 190 186 183 186 185 180 186 176 176 175 170 166 166 166 165 164 162
334 338 337 337 338 335 335 333 329 320 314 307 297 284 277 267 258 251 241 233 223 215 210 209 201 188 186 182 182 182 178 176 176 169 167 165 163 162 163 162 161 160 157
333 337 333 335 341 339 348 340 331 321 317 315 304 290 280 283 285 270 257 242 229 219 208 204 202 191 187 182 188 181 178 165 167 163 157 161 158 161 161 158 157 156 152
335 336 332 336 336 343 346 338 330 324 324 321 318 308 288 252 253 248 253 254 249 231 215 207 205 202 198 190 181 178 172 169 170 165 157 155 154 155 157 158 158 155 152
333 333 333 332 330 344 346 340 338 323 326 332 330 328 323 333 289 249 219 227 236 237 235 225 215 213 203 192 184 184 182 174 163 156 147 146 149 148 146 148 154 155 153
327 326 329 328 325 339 348 339 332 318 331 335 337 335 330 333 354 330 292 253 245 224 226 229 229 224 210 195 189 184 170 147 123 134 137 133 137 129 128 140 149 150 150
322 324 327 323 324 334 356 342 331 325 330 335 341 349 344 340 5 327 291 279 271 245 212 245 253 232 199 180 171 164 163 157 147 136 120 122 128 112 106 124 142 144 145
312 312 315 319 323 325 354 342 333 324 330 333 332 342 16 355 343 318 288 272 263 252 220 192 195 188 183 169 171 179 171 163 148 140 147 129 138 131 116 97 131 146 143